Location: Unspecified
(0.0000°N, 0.0000°E)
Time: 22:34:30
(UTC+00:00)

deb Explorer IX - Pass Details

Date: 20 December 2018
Orbit: 538 x 1115 km, 38.8° (Epoch: 18 January)

Event Time Altitude Azimuth Distance (km) Brightness Sun altitude
Rises 23:15:48 0° 333° (NNW) 2,750 - -64.4°
Reaches altitude 10° 23:18:17 10° 348° (NNW) 1,913 - -64.7°
Maximum altitude 23:21:53 24° 43° (NE) 1,303 - -65.0°
Drops below altitude 10° 23:25:54 10° 97° (E) 2,157 - -65.3°
Sets 23:28:53 0° 110° (ESE) 3,192 - -65.5°
